[[{"header":{"parameterUnit":"m.s-1","parameterCategory":2,"la1":30.2992,"la2":30.254,"lo1":-89.0895,"lo2":-89.0443,"dy":0.0025,"dx":0.0025,"nx":19,"ny":19,"refTime":"2026-05-03T21:00:00:Z","depth":"0","parameterNumber":2,"parameterNumberName":"U-component_of_CURRENTS"},"data":[0,0,0,0.1066,0.1067,0.1112,0.1112,0.1206,0.1207,0,0,0,0,0,0,0,0,0,0,0,0.105,0.1051,0.1065,0.1067,0.1112,0.1112,0.1206,0.1207,0,0,0,0,0,0,0,0,0,0,0,0.105,0.1051,0.1051,0.1067,0.1112,0.1112,0.1206,0.1161,0,0,0,0,0,0,0,0,0,0,0.1112,0.1086,0.1051,0.1051,0.1067,0.1112,0.1112,0.1158,0.1164,0.1199,0,0.1213,0,0.1218,0.1215,0.1216,0,0,0,0.1059,0.1081,0.1105,0.1051,0.1068,0.1111,0.1089,0.1161,0.1167,0.1207,0.1215,0.1218,0.122,0.1216,0.1217,0.1355,0.1356,0,0,0.1056,0.1047,0.1101,0.1109,0.1091,0.1088,0.1091,0.1164,0.117,0.1215,0.122,0.1222,0.1217,0.1218,0.1355,0.1356,0,0,0,0.1055,0.1045,0.1066,0.1106,0.1114,0.1089,0.1093,0.1166,0.1177,0.1221,0.1223,0.1218,0.1219,0.1354,0.1355,0.1401,0,0,0,0.1053,0.1045,0.1065,0.1058,0.1113,0.1133,0.1092,0.1171,0.118,0.1222,0.1218,0.122,0.1353,0.1355,0.1399,0.1474,0,0,0,0.1046,0.1044,0.1055,0.1058,0.1082,0.1132,0.1146,0.1173,0.1182,0.1216,0.1221,0.1353,0.1354,0.1396,0.1468,0.1682,0,0,0,0.1026,0.106,0.1054,0.1099,0.1082,0.1143,0.1145,0.1186,0.1217,0.1218,0.1354,0.1355,0.1395,0.1465,0.1675,0.182,0.1862,0,0,0.1062,0.1064,0.1094,0.1091,0.1156,0.1135,0.1208,0.1242,0.1253,0.1329,0.1332,0.14,0.1468,0.168,0.1906,0.1946,0,0,0,0.1101,0.112,0.114,0.1175,0.1209,0.1253,0.1266,0.1288,0.1352,0.1281,0.1417,0.1461,0.1593,0.1666,0.1698,0.1712,0.1362,0.1362,0.1362,0.1122,0.1153,0.1203,0.1245,0.1285,0.1336,0.1394,0.1431,0.1403,0.144,0.1508,0.1719,0.1791,0.1818,0.1827,0.1491,0.1492,0.1492,0.1492,0.1173,0.1204,0.1246,0.1303,0.1358,0.1415,0.1516,0.1526,0.1695,0.1579,0.1706,0.1722,0.1856,0.1854,0.1495,0.1495,0.1494,0.1494,0.1494,0.1179,0.1198,0.1234,0.1312,0.1397,0.1465,0.1649,0.171,0.1788,0.1894,0.2078,0.2078,0.2081,0.1985,0.1986,0.1987,0.1988,0.1989,0.199,0.1163,0.1204,0.1246,0.1323,0.1381,0.152,0.1741,0.1914,0.2161,0.2211,0.2213,0.217,0.1873,0.1859,0.2009,0.2006,0.2003,0.2001,0.2,0.1172,0.1181,0.1252,0.1304,0.1461,0.1625,0.1849,0.2277,0.2498,0.267,0.2616,0.2414,0.2456,0.243,0.2432,0.2722,0.2722,0.2722,0.2722,0.1163,0.1174,0.1278,0.1373,0.1527,0.1687,0.2048,0.2396,0.2767,0.2911,0.2917,0.2769,0.2739,0.2787,0.2753,0.2756,0.3122,0.3122,0.3122,0.1167,0.1204,0.1279,0.1384,0.1551,0.1773,0.2053,0.2365,0.2897,0.3131,0.2917,0.29,0.266,0.2612,0.2653,0.2604,0.2595,0,0]},{"header":{"parameterUnit":"m.s-1","parameterCategory":2,"la1":30.2992,"la2":30.254,"lo1":-89.0895,"lo2":-89.0443,"dy":0.0025,"dx":0.0025,"nx":19,"ny":19,"refTime":"2026-05-03T21:00:00:Z","depth":"0","parameterNumber":3,"parameterNumberName":"V-component_of_CURRENTS"},"data":[0,0,0,-0.0171,-0.0172,-0.0175,-0.0175,-0.0132,-0.0132,0,0,0,0,0,0,0,0,0,0,0,-0.0162,-0.0162,-0.0171,-0.0172,-0.0175,-0.0175,-0.0132,-0.0132,0,0,0,0,0,0,0,0,0,0,0,-0.0162,-0.0162,-0.0163,-0.0172,-0.0175,-0.0175,-0.0132,-0.0138,0,0,0,0,0,0,0,0,0,0,-0.0138,-0.0143,-0.0162,-0.0163,-0.0172,-0.0175,-0.0175,-0.0138,-0.0137,-0.0121,0,-0.0129,0,-0.0139,-0.0129,-0.0129,0,0,0,-0.0156,-0.0144,-0.0149,-0.0163,-0.0172,-0.0176,-0.0169,-0.0138,-0.0137,-0.012,-0.0129,-0.0128,-0.0138,-0.0129,-0.0129,-0.0193,-0.0194,0,0,-0.0156,-0.0156,-0.015,-0.0149,-0.0181,-0.0169,-0.017,-0.0138,-0.0136,-0.0128,-0.0127,-0.0137,-0.0129,-0.0128,-0.0192,-0.0194,0,0,0,-0.0166,-0.0156,-0.0162,-0.015,-0.016,-0.017,-0.017,-0.0138,-0.0141,-0.0127,-0.0137,-0.0128,-0.0128,-0.0191,-0.0193,-0.0203,0,0,0,-0.0165,-0.0163,-0.0162,-0.0161,-0.0161,-0.0156,-0.0171,-0.0143,-0.014,-0.0137,-0.0128,-0.0127,-0.019,-0.0192,-0.02,-0.0086,0,0,0,-0.0161,-0.0163,-0.0166,-0.0161,-0.0171,-0.0157,-0.0158,-0.0142,-0.0147,-0.0129,-0.0127,-0.0189,-0.0192,-0.0198,-0.0087,0.011,0,0,0,-0.0155,-0.0171,-0.0166,-0.0194,-0.0171,-0.0211,-0.0159,-0.0177,-0.017,-0.0128,-0.019,-0.0193,-0.0197,-0.0087,0.0107,0.0361,0.0398,0,0,-0.0174,-0.0173,-0.0193,-0.0189,-0.0236,-0.0209,-0.0253,-0.0217,-0.0201,-0.0191,-0.0193,-0.0201,-0.0087,0.0109,0.0223,0.0266,0,0,0,-0.0199,-0.0211,-0.0226,-0.0251,-0.0274,-0.0265,-0.0272,-0.0262,-0.0254,-0.0211,-0.0247,-0.0172,-0.0047,0.0094,0.0125,-0.0048,-0.0204,-0.0203,-0.0203,-0.0199,-0.0228,-0.0263,-0.0298,-0.0315,-0.0322,-0.0293,-0.0283,-0.0308,-0.0322,-0.0221,-0.012,0.0016,0.0047,-0.0143,-0.0329,-0.0329,-0.0329,-0.0329,-0.0226,-0.0239,-0.0275,-0.0313,-0.0316,-0.0335,-0.03,-0.0294,-0.0176,-0.0273,-0.0153,0.0025,0.0083,-0.0133,-0.033,-0.033,-0.033,-0.033,-0.033,-0.021,-0.0218,-0.0253,-0.0287,-0.0273,-0.0274,-0.0076,-0.0092,-0.0092,-0.0011,0.0268,0.0271,0.0139,0.0071,0.0072,0.0073,0.0075,0.0075,0.0076,-0.0163,-0.0203,-0.0188,-0.0228,-0.0182,-0.0054,0.0103,0.026,0.0409,0.0383,0.0385,0.0148,0.0007,0.0057,0.0096,0.0092,0.009,0.0088,0.0087,-0.0114,-0.012,-0.0078,-0.0038,0.011,0.0435,0.052,0.0907,0.0999,0.1127,0.0635,0.0617,0.0711,0.0685,0.0752,0.097,0.097,0.0971,0.0971,-0.0042,-0.0061,0.0085,0.0229,0.0461,0.0693,0.1285,0.1473,0.1293,0.1117,0.0887,0.0724,0.0696,0.0774,0.0746,0.0807,0.1034,0.1033,0.1033,0.0025,0.0063,0.0232,0.036,0.0644,0.1086,0.1679,0.1909,0.1451,0.1,0.0589,0.0586,0.0291,0.0263,0.0333,0.0307,0.0388,0,0]}],[{"header":{"parameterUnit":"m.s-1","parameterCategory":2,"la1":30.2992,"la2":30.254,"lo1":-89.0895,"lo2":-89.0443,"dy":0.0025,"dx":0.0025,"nx":19,"ny":19,"refTime":"2026-05-03T21:00:00:Z","depth":"2","parameterNumber":2,"parameterNumberName":"U-component_of_CURRENTS"},"data":[0,0,0,0.1057,0.1058,0.1099,0.1099,0.1171,0.1172,0,0,0,0,0,0,0,0,0,0,0,0.1044,0.1045,0.1057,0.1058,0.1099,0.1099,0.1171,0.1172,0,0,0,0,0,0,0,0,0,0,0,0.1044,0.1045,0.1045,0.1058,0.1099,0.1099,0.117,0.1133,0,0,0,0,0,0,0,0,0,0,0.109,0.1071,0.1045,0.1045,0.1059,0.1099,0.1099,0.1131,0.1136,0.1159,0,0.1173,0,0.1177,0.1177,0.1178,0,0,0,0.1052,0.1067,0.1087,0.1046,0.1059,0.1099,0.1079,0.1133,0.1138,0.1165,0.1174,0.1176,0.1178,0.1178,0.1178,0.1297,0.1298,0,0,0.105,0.1043,0.1084,0.1091,0.108,0.1078,0.108,0.1136,0.1141,0.1174,0.1178,0.118,0.1178,0.1179,0.1297,0.1297,0,0,0,0.1047,0.1041,0.1059,0.1088,0.1096,0.1079,0.1082,0.1138,0.1147,0.1179,0.118,0.1179,0.118,0.1296,0.1297,0.1361,0,0,0,0.1046,0.104,0.1058,0.1053,0.1095,0.1113,0.1083,0.1143,0.115,0.118,0.1179,0.1181,0.1295,0.1296,0.1357,0.143,0,0,0,0.1041,0.1039,0.1049,0.1053,0.1074,0.1113,0.1124,0.1144,0.1151,0.1178,0.1181,0.1295,0.1296,0.1354,0.1424,0.1628,0,0,0,0.1024,0.1058,0.1049,0.1093,0.1074,0.1132,0.1123,0.1162,0.1188,0.1179,0.1295,0.1297,0.1353,0.142,0.1621,0.167,0.1704,0,0,0.1061,0.1062,0.1091,0.1085,0.1144,0.1125,0.1195,0.1219,0.122,0.1275,0.1278,0.1358,0.1423,0.1626,0.1759,0.1792,0,0,0,0.11,0.1118,0.1136,0.1167,0.1198,0.1238,0.1245,0.1268,0.1323,0.1244,0.1372,0.1413,0.1539,0.1553,0.1579,0.1304,0.1304,0.1304,0.1304,0.1126,0.1151,0.1197,0.1231,0.1271,0.1319,0.1377,0.1412,0.1377,0.1416,0.1473,0.1684,0.1694,0.1716,0.1458,0.1458,0.1459,0.1459,0.1459,0.1181,0.1204,0.124,0.1291,0.1337,0.1395,0.1497,0.1509,0.1672,0.1557,0.1677,0.1627,0.1748,0.1464,0.1463,0.1463,0.1462,0.1462,0.1461,0.1187,0.12,0.1232,0.13,0.1379,0.1445,0.1631,0.1695,0.1769,0.1874,0.1979,0.1977,0.1793,0.196,0.1961,0.1962,0.1963,0.1964,0.1965,0.1171,0.1205,0.1243,0.1312,0.1365,0.1504,0.1727,0.1886,0.2084,0.2111,0.2112,0.1856,0.184,0.1826,0.1983,0.198,0.1978,0.1976,0.1975,0.1175,0.118,0.1249,0.1295,0.1448,0.1594,0.1821,0.2174,0.2378,0.2495,0.2279,0.2265,0.2287,0.2264,0.2262,0.2524,0.2524,0.2524,0.2524,0.1161,0.1172,0.1269,0.1361,0.1511,0.1651,0.1929,0.2107,0.2325,0.2356,0.2361,0.217,0.2154,0.2156,0.2134,0.2123,0.235,0.2349,0.2348,0.116,0.1197,0.1268,0.1371,0.1531,0.1721,0.1864,0.189,0.2095,0.2326,0.2168,0.2544,0.227,0.2243,0.2243,0.221,0.2192,0,0]},{"header":{"parameterUnit":"m.s-1","parameterCategory":2,"la1":30.2992,"la2":30.254,"lo1":-89.0895,"lo2":-89.0443,"dy":0.0025,"dx":0.0025,"nx":19,"ny":19,"refTime":"2026-05-03T21:00:00:Z","depth":"2","parameterNumber":3,"parameterNumberName":"V-component_of_CURRENTS"},"data":[0,0,0,-0.0327,-0.0328,-0.0338,-0.0337,-0.0346,-0.0346,0,0,0,0,0,0,0,0,0,0,0,-0.0318,-0.0318,-0.0327,-0.0328,-0.0338,-0.0337,-0.0346,-0.0346,0,0,0,0,0,0,0,0,0,0,0,-0.0318,-0.0318,-0.0319,-0.0328,-0.0338,-0.0337,-0.0346,-0.0337,0,0,0,0,0,0,0,0,0,0,-0.0327,-0.0321,-0.0318,-0.0319,-0.0328,-0.0338,-0.0337,-0.0337,-0.0338,-0.0343,0,-0.0348,0,-0.0354,-0.0347,-0.0347,0,0,0,-0.0318,-0.032,-0.0328,-0.0319,-0.0328,-0.0338,-0.033,-0.0337,-0.0338,-0.0345,-0.0348,-0.0348,-0.0354,-0.0348,-0.0348,-0.0434,-0.0435,0,0,-0.0318,-0.0315,-0.0327,-0.0329,-0.0335,-0.033,-0.0331,-0.0338,-0.0338,-0.0348,-0.0349,-0.0354,-0.0348,-0.0348,-0.0433,-0.0434,0,0,0,-0.0323,-0.0314,-0.0321,-0.0328,-0.0334,-0.0331,-0.0331,-0.0338,-0.0341,-0.0349,-0.0354,-0.0348,-0.0348,-0.0432,-0.0433,-0.0399,0,0,0,-0.0322,-0.0318,-0.0321,-0.0319,-0.0334,-0.0337,-0.0331,-0.034,-0.0342,-0.0354,-0.0348,-0.0348,-0.0431,-0.0433,-0.0398,-0.0296,0,0,0,-0.0317,-0.0317,-0.0321,-0.0319,-0.0328,-0.0337,-0.034,-0.0341,-0.0346,-0.0347,-0.0348,-0.0431,-0.0433,-0.0397,-0.0298,-0.0134,0,0,0,-0.031,-0.0323,-0.0321,-0.0346,-0.0328,-0.0369,-0.034,-0.0362,-0.0368,-0.0348,-0.0431,-0.0433,-0.0397,-0.0299,-0.0138,-0.0082,-0.006,0,0,-0.0325,-0.0325,-0.0343,-0.0342,-0.0393,-0.0367,-0.0405,-0.0394,-0.04,-0.0425,-0.0427,-0.0398,-0.0298,-0.0135,-0.0192,-0.0165,0,0,0,-0.0348,-0.036,-0.0375,-0.0406,-0.043,-0.0413,-0.0434,-0.0422,-0.0428,-0.0415,-0.0447,-0.0384,-0.0281,-0.0259,-0.024,-0.0442,-0.0442,-0.0442,-0.0442,-0.0342,-0.0378,-0.0412,-0.0452,-0.0464,-0.0466,-0.0431,-0.0425,-0.0466,-0.047,-0.0396,-0.0295,-0.0283,-0.0264,-0.0489,-0.0489,-0.0488,-0.0488,-0.0488,-0.0371,-0.0382,-0.0424,-0.046,-0.0456,-0.0465,-0.0421,-0.0412,-0.0316,-0.0408,-0.0311,-0.0276,-0.0239,-0.0487,-0.0487,-0.0487,-0.0487,-0.0488,-0.0488,-0.0351,-0.0357,-0.0394,-0.0427,-0.0399,-0.0388,-0.0201,-0.0209,-0.022,-0.0148,-0.0045,-0.0045,-0.0149,-0.0085,-0.0084,-0.0082,-0.0082,-0.0081,-0.008,-0.0294,-0.0338,-0.0319,-0.0352,-0.0301,-0.0173,-0.003,0.0078,0.0125,0.0069,0.0069,-0.0154,-0.0168,-0.0124,-0.0063,-0.0066,-0.0068,-0.007,-0.0071,-0.0239,-0.0238,-0.0201,-0.016,-0.002,0.0197,0.0292,0.0483,0.0554,0.0572,0.0208,0.0195,0.0238,0.0219,0.0271,0.0433,0.0433,0.0433,0.0433,-0.0156,-0.0173,-0.0044,0.0085,0.0284,0.0406,0.0734,0.0742,0.0625,0.0484,0.0481,0.0323,0.0302,0.0339,0.0317,0.0367,0.0554,0.0554,0.0554,-0.0087,-0.0058,0.009,0.02,0.0434,0.0671,0.0893,0.0871,0.0652,0.0554,0.045,0.0451,0.02,0.0175,0.021,0.0183,0.0255,0,0]}],[{"header":{"parameterUnit":"m.s-1","parameterCategory":2,"la1":30.2992,"la2":30.254,"lo1":-89.0895,"lo2":-89.0443,"dy":0.0025,"dx":0.0025,"nx":19,"ny":19,"refTime":"2026-05-03T21:00:00:Z","depth":"4","parameterNumber":2,"parameterNumberName":"U-component_of_CURRENTS"},"data":[0,0,0,0.0673,0.0675,0.0757,0.0758,0.0855,0.0855,0,0,0,0,0,0,0,0,0,0,0,0.0654,0.0654,0.0673,0.0675,0.0757,0.0758,0.0855,0.0855,0,0,0,0,0,0,0,0,0,0,0,0.0653,0.0654,0.0655,0.0675,0.0757,0.0758,0.0854,0.0795,0,0,0,0,0,0,0,0,0,0,0.0716,0.071,0.0654,0.0655,0.0675,0.0757,0.0758,0.0793,0.0799,0.0813,0,0.0833,0,0.0841,0.0861,0.0862,0,0,0,0.068,0.0705,0.0713,0.0655,0.0676,0.0757,0.0721,0.0796,0.0803,0.0821,0.0834,0.0838,0.0842,0.0862,0.0862,0.0961,0.0961,0,0,0.0675,0.0681,0.0708,0.0718,0.0707,0.0719,0.0724,0.0801,0.082,0.0835,0.084,0.0844,0.0862,0.0863,0.096,0.0961,0,0,0,0.0659,0.0678,0.0686,0.0714,0.0727,0.0721,0.0727,0.0817,0.0816,0.0841,0.0845,0.0863,0.0864,0.096,0.096,0.115,0,0,0,0.0656,0.0668,0.0684,0.069,0.0726,0.0777,0.0742,0.0811,0.082,0.0845,0.0863,0.0865,0.0959,0.096,0.1144,0.1111,0,0,0,0.0648,0.0667,0.0676,0.069,0.0721,0.0776,0.078,0.0813,0.0822,0.0862,0.0865,0.0959,0.096,0.1139,0.1105,0.1145,0,0,0,0.0651,0.0671,0.0677,0.0706,0.072,0.0776,0.078,0.0845,0.0885,0.0863,0.0959,0.096,0.1137,0.1101,0.1141,0.099,0,0,0,0.0669,0.0674,0.0687,0.0693,0.0728,0.0764,0.0834,0.0893,0.09,0.0933,0.0936,0.1146,0.1105,0.1144,0.105,0,0,0,0,0.0687,0.07,0.0713,0.0738,0.0774,0.0847,0.0894,0.0948,0.1058,0.0926,0.1113,0.1076,0.1098,0.0998,0.0965,0.0965,0.0965,0.0965,0.0965,0.0704,0.0713,0.0732,0.0761,0.0818,0.0912,0.0991,0.1067,0.1098,0.119,0.1214,0.1328,0.1233,0.1249,0.125,0.1251,0.1252,0.1252,0.1253,0.0703,0.0689,0.0743,0.0779,0.0858,0.0958,0.1112,0.1196,0.1322,0.1328,0.1346,0.1181,0.1271,0.1267,0.1264,0.1262,0.1261,0.126,0.1259,0.0675,0.0662,0.0711,0.0766,0.0895,0.1028,0.1155,0.1318,0.1421,0.1482,0.136,0.1397,0.1399,0.1541,0.1542,0.1542,0.1542,0.1542,0.1542,0.0603,0.0636,0.0679,0.0766,0.0846,0.1001,0.1237,0.1323,0.147,0.1447,0.1523,0.1421,0.1412,0.141,0.1544,0.1543,0.1543,0.1543,0.1543,0.0529,0.0562,0.0613,0.0675,0.0841,0.0922,0.1141,0.1305,0.1387,0.1398,0.1423,0.1428,0.131,0.1302,0.1291,0.1395,0.1394,0.1392,0,0.0468,0.0485,0.0555,0.0638,0.0735,0.0877,0.0977,0.1116,0.1251,0.1213,0.1339,0.1359,0.1365,0.122,0.1211,0.1192,0,0,0,0.0413,0.0442,0.0476,0.0576,0.0692,0.0855,0.1008,0.105,0.1217,0.1288,0.1354,0.1364,0.1458,0.1548,0.1376,0.1365,0.135,0,0]},{"header":{"parameterUnit":"m.s-1","parameterCategory":2,"la1":30.2992,"la2":30.254,"lo1":-89.0895,"lo2":-89.0443,"dy":0.0025,"dx":0.0025,"nx":19,"ny":19,"refTime":"2026-05-03T21:00:00:Z","depth":"4","parameterNumber":3,"parameterNumberName":"V-component_of_CURRENTS"},"data":[0,0,0,-0.0055,-0.0055,-0.0061,-0.0061,-0.0046,-0.0046,0,0,0,0,0,0,0,0,0,0,0,-0.0053,-0.0053,-0.0055,-0.0055,-0.0061,-0.0061,-0.0046,-0.0046,0,0,0,0,0,0,0,0,0,0,0,-0.0054,-0.0053,-0.0053,-0.0055,-0.0061,-0.0061,-0.0046,-0.0048,0,0,0,0,0,0,0,0,0,0,-0.0045,-0.0046,-0.0053,-0.0053,-0.0055,-0.0061,-0.0061,-0.0048,-0.0048,-0.0036,0,-0.0036,0,-0.0038,-0.0044,-0.0044,0,0,0,-0.0058,-0.0046,-0.0047,-0.0053,-0.0055,-0.0061,-0.0059,-0.0048,-0.0048,-0.0035,-0.0036,-0.0035,-0.0038,-0.0044,-0.0044,0.0109,0.011,0,0,-0.0058,-0.0055,-0.0048,-0.0047,-0.0054,-0.0059,-0.0059,-0.0048,-0.0046,-0.0036,-0.0035,-0.0037,-0.0044,-0.0044,0.0107,0.0109,0,0,0,-0.0054,-0.0055,-0.0057,-0.0047,-0.0049,-0.0059,-0.0059,-0.0047,-0.0048,-0.0035,-0.0037,-0.0044,-0.0043,0.0106,0.0108,0.0162,0,0,0,-0.0054,-0.0053,-0.0056,-0.0055,-0.0049,-0.0051,-0.0058,-0.0048,-0.0047,-0.0037,-0.0044,-0.0043,0.0104,0.0107,0.0157,0.0151,0,0,0,-0.0054,-0.0052,-0.0053,-0.0055,-0.0056,-0.0051,-0.0051,-0.0049,-0.0048,-0.0044,-0.0043,0.0103,0.0106,0.0152,0.0145,0.0065,0,0,0,-0.0052,-0.0001,-0.0053,0.0019,-0.0056,0.0039,-0.0052,0.0,0.0018,-0.0043,0.0104,0.0108,0.0151,0.0141,0.0063,0.0061,0,0,0,0.0027,0.0008,0.006,0.0015,0.0132,0.0039,0.0157,0.0119,0.0073,0.0097,0.01,0.0158,0.0145,0.0065,0.0269,0,0,0,0,0.0097,0.0133,0.0163,0.0209,0.0239,0.0251,0.0232,0.0205,0.0196,0.0097,0.0215,0.0205,0.0151,0.0151,0.0125,0.0124,0.0124,0.0123,0.0123,0.0196,0.0231,0.0329,0.0375,0.0419,0.0416,0.04,0.0361,0.0327,0.0334,0.0292,0.0328,0.0343,0.0357,0.0357,0.0357,0.0358,0.0358,0.0358,0.0334,0.0387,0.043,0.0535,0.0542,0.0611,0.0558,0.05,0.042,0.0413,0.0356,0.0268,0.0365,0.0363,0.0362,0.0362,0.0361,0.0361,0.036,0.0388,0.0415,0.0481,0.059,0.0658,0.067,0.0618,0.0551,0.0454,0.0406,0.032,0.0327,0.0264,0.035,0.035,0.0349,0.0349,0.0349,0.0349,0.0389,0.046,0.0521,0.063,0.0669,0.0681,0.0616,0.0531,0.043,0.0364,0.0385,0.0322,0.0322,0.0263,0.0344,0.0345,0.0345,0.0346,0.0346,0.0427,0.043,0.0512,0.0558,0.0637,0.0641,0.0609,0.047,0.0349,0.0263,0.0312,0.0315,0.026,0.026,0.0196,0.0259,0.0259,0.0259,0,0.04,0.0426,0.0471,0.0511,0.0542,0.0594,0.0491,0.0413,0.0302,0.0307,0.0298,0.0356,0.0358,0.0301,0.0301,0.023,0,0,0,0.0385,0.0402,0.04,0.0456,0.0495,0.0469,0.0456,0.0402,0.0366,0.0275,0.0263,0.0262,0.0343,0.033,0.0249,0.025,0.0148,0,0]}]]